Hourly Data Report for July 11, 2002

SHERBROOKE A
QUEBEC

45°26'00.000" N
71°41'00.000" W
241.40 m
7028124
71610
YSC

Download Data

Hourly Data (July 2002)
Hourly Data Report for July 11, 2002
TIME
LST
Temp Definition
°C
Dew Point Definition
°C
Rel Hum Definition
%
Precip. Amount Definition
mm

Wind Dir Definition
10's deg

Wind Spd Definition
km/h
Visibility Definition
km
Stn Press Definition
kPa
Hmdx Definition


Wind Chill Definition


Weather Definition


00:00 8.7 6.6 87   30 9 15.0 98.76      
01:00 6.4 5.7 95   25 4 15.0 98.79      
02:00 7.6 6.4 92   25 4 15.0 98.77      
03:00 7.3 6.3 93   28 9 15.0 98.79      
04:00 6.7 5.8 94   28 6 15.0 98.80      
05:00 8.4 7.5 94   27 13 15.0 98.83      
06:00 9.1 7.4 89   27 15 15.0 98.86      
07:00 11.6 8.3 80   30 13 24.1 98.89     Mainly Clear
08:00 12.9 8.1 73   30 19 24.1 98.91     Cloudy
09:00 12.5 7.9 74   29 15 24.1 98.89     Mostly Cloudy
10:00 15.0 8.9 67   29 19 24.1 98.82     Mostly Cloudy
11:00 16.1 7.7 57   30 20 24.1 98.77     Mostly Cloudy
12:00 17.9 8.8 55   29 26 24.1 98.76     Mainly Clear
13:00 18.5 8.7 53   27 30 24.1 98.70     Mainly Clear
14:00 19.2 7.4 46   31 22 24.1 98.68     Mainly Clear
15:00 19.7 7.4 45   28 22 24.1 98.66     Mainly Clear
16:00 19.7 6.9 43   29 28 24.1 98.65     Clear
17:00 19.3 6.0 42   30 24 15.0 98.65      
18:00 18.7 7.3 47   28 17 15.0 98.67      
19:00 16.7 7.9 56   26 9 15.0 98.68      
20:00 13.6 7.1 65   24 9 15.0 98.69      
21:00 12.2 6.7 69   27 7 15.0 98.74      
22:00 9.2 6.9 86   22 4 15.0 98.75      
23:00 7.9 5.7 86   18 7 15.0 98.78      

Notes on Data Quality.

Legend

  • E = Estimated
  • M = Missing
  • NA = Not Available*
  • [empty] = Indicates an unobserved value
Date modified: